Theta_e
344 342 342 342 342 342 343 343 344 344 344 347 347 347 347 347 348 348 349 350 348 348 348 347 348 349 350 349 349 349 349 349 349 351 349 344 342 344 344 344 344 346 349 350 349 347 346 345 344 345 347 347 346 345 344 345 347 349 350 349 349 348 347 347 346 346 345 345 344 343 344 344 343 342 342 341 341 343 343 344 345 343 342 341 336
344 342 340 342 342 341 342 342 343 344 344 346 347 347 347 347 348 348 347 346 344 345 345 346 349 349 349 350 350 350 350 351 351 352 351 345 343 344 344 344 345 346 349 350 350 348 346 346 346 346 348 348 346 344 344 343 343 346 348 349 349 348 347 347 345 344 344 343 344 344 344 344 344 344 343 342 341 342 343 344 344 342 340 339 337
345 343 341 342 343 342 343 343 343 345 345 346 347 347 346 347 348 347 346 344 342 342 343 346 350 350 349 351 352 351 351 352 352 353 352 346 343 344 344 344 344 345 347 347 348 348 346 346 346 347 349 348 345 343 343 343 341 343 347 350 350 349 348 347 346 345 344 343 343 344 344 344 343 344 344 344 342 341 342 342 343 342 340 341 343
346 343 342 342 343 342 343 342 343 345 346 345 345 346 346 347 348 346 346 344 341 341 341 345 350 350 350 352 353 352 352 353 352 353 352 346 344 345 344 344 345 345 346 346 346 347 346 346 347 346 346 345 342 341 343 344 344 345 347 350 349 349 348 348 348 347 345 344 344 343 344 344 344 344 344 344 343 341 341 342 343 342 342 345 345
347 343 343 343 343 343 343 343 343 344 345 345 345 345 346 348 348 346 344 342 339 340 342 346 350 351 351 351 353 352 352 354 353 353 353 348 344 345 344 344 345 345 346 346 345 345 345 346 346 345 345 345 344 342 344 346 348 348 347 348 349 349 348 348 347 346 344 345 345 344 345 345 345 344 343 343 343 343 342 342 343 341 341 344 346
347 345 344 344 344 344 343 343 344 343 344 345 345 345 345 348 349 345 343 342 339 340 344 347 350 351 350 351 352 353 353 353 353 352 352 348 344 346 345 345 346 346 345 346 346 345 345 345 345 345 345 346 345 344 346 349 350 350 348 348 350 349 348 348 346 344 344 346 346 345 346 346 346 344 343 343 342 340 340 341 343 340 338 341 344
348 348 345 344 344 345 343 343 344 343 344 345 346 346 345 347 347 343 343 342 339 342 346 348 350 351 350 351 351 352 352 354 353 351 349 347 345 345 345 345 346 346 347 347 346 346 346 346 346 345 345 346 348 348 350 351 350 348 348 349 350 349 348 349 347 344 345 347 347 348 347 345 346 345 343 343 341 339 339 340 340 339 339 340 343
349 350 347 344 345 346 345 344 343 343 344 345 346 347 347 346 345 343 343 342 339 343 348 347 347 349 350 351 351 351 351 352 352 350 350 349 348 347 344 345 347 346 348 348 346 346 346 346 346 345 345 347 348 350 351 352 351 348 347 348 349 348 348 349 346 345 346 347 348 349 348 346 347 346 344 344 343 343 341 341 340 339 340 343 343
350 349 348 346 346 346 346 345 344 344 344 346 346 347 348 347 345 342 343 343 339 343 347 346 343 346 351 351 351 352 351 352 352 351 351 351 352 350 344 346 348 347 349 348 346 346 345 345 346 345 345 344 347 350 350 351 351 350 347 346 348 347 349 348 346 345 346 347 349 349 347 347 347 345 344 344 344 345 343 341 341 340 341 343 344
350 350 348 347 346 347 346 345 345 345 345 346 346 347 348 348 345 340 341 342 340 341 345 344 343 347 351 351 351 352 352 353 352 352 352 352 353 352 347 348 350 350 350 348 346 345 345 345 345 346 345 343 346 350 352 351 351 349 345 345 346 346 348 348 346 345 347 348 349 348 346 347 346 343 344 345 345 345 344 343 342 340 341 343 344
352 351 349 348 348 347 348 346 346 346 346 346 347 347 347 348 346 339 337 340 340 340 342 342 344 347 350 352 352 352 352 353 353 352 352 352 352 352 350 349 350 352 351 348 346 346 345 344 344 346 345 345 347 350 350 350 348 345 344 343 344 344 346 347 347 348 348 348 348 347 346 347 347 345 346 347 345 344 344 345 343 341 341 342 344
354 351 350 349 349 349 348 347 347 346 346 346 346 348 347 347 347 341 337 338 339 340 340 339 342 345 349 351 352 352 353 352 352 352 352 352 352 352 352 350 349 352 351 346 346 346 344 344 344 345 345 347 350 350 348 346 344 344 343 343 343 343 344 345 347 350 349 348 346 346 347 347 346 346 346 347 345 344 345 345 344 343 341 340 342
353 351 350 349 349 350 349 348 348 346 346 347 347 347 347 347 347 343 338 338 338 339 337 335 338 342 345 349 350 351 352 351 351 352 351 351 352 352 353 351 347 349 350 345 345 345 344 345 344 345 346 347 350 350 347 345 345 344 343 343 343 342 343 344 345 348 350 348 346 346 348 349 348 347 347 347 345 342 344 345 346 346 343 341 342
354 353 351 351 349 350 351 349 348 347 347 347 346 347 347 347 347 345 341 338 338 338 335 333 335 339 341 343 346 349 351 351 350 350 350 350 350 349 351 351 347 347 349 346 345 344 345 345 344 346 346 345 346 347 347 347 348 346 343 343 343 342 342 344 344 346 348 348 346 347 349 350 350 349 348 348 346 344 344 344 346 347 345 344 343
355 354 353 352 351 351 352 350 348 348 347 347 347 347 347 347 348 347 343 339 339 338 335 333 333 336 339 340 342 345 349 351 349 348 348 347 346 345 345 348 348 348 350 350 348 346 346 345 344 346 346 345 345 345 346 348 347 346 345 343 343 343 342 343 345 347 348 348 349 350 350 350 350 349 349 349 348 348 347 345 344 346 346 345 344
354 355 355 353 352 352 352 351 350 348 348 348 346 347 348 348 348 348 345 340 338 338 337 335 333 334 336 338 340 341 345 350 350 348 346 344 343 342 343 345 347 350 353 354 352 350 350 348 344 345 345 345 345 344 345 346 346 345 345 344 344 343 343 342 345 349 349 348 350 352 352 351 350 349 350 350 348 348 350 348 345 345 346 345 345
354 355 356 355 354 353 352 351 350 348 349 350 347 347 348 348 348 349 347 343 339 338 338 337 336 334 332 334 336 337 339 344 347 346 345 343 341 341 342 344 346 350 352 354 354 353 353 350 345 344 345 344 343 343 343 343 345 345 344 346 347 344 343 343 345 348 350 349 350 351 351 352 351 350 350 351 349 348 349 349 347 346 345 346 347
357 356 355 355 355 354 353 352 351 350 350 351 350 349 350 348 349 349 349 346 340 337 337 337 337 337 334 331 331 333 334 337 340 342 344 344 342 341 342 343 347 350 351 353 354 353 352 350 346 343 344 344 342 342 343 342 344 345 343 346 348 345 344 345 346 348 350 350 349 348 349 351 351 351 351 351 351 350 350 350 349 348 347 346 348
359 357 355 355 354 355 355 354 354 353 352 352 352 352 352 351 351 351 351 349 344 340 339 338 337 338 338 334 330 330 330 332 335 337 342 344 343 343 342 344 349 350 351 352 353 353 352 349 347 344 343 344 343 343 344 343 343 344 344 344 346 346 344 345 347 349 350 350 349 347 347 347 350 350 350 350 350 351 350 349 346 347 347 346 346
356 356 356 356 356 355 355 354 355 354 354 354 353 352 353 354 354 353 352 351 349 347 346 344 342 340 340 338 335 332 330 331 332 333 337 340 343 345 343 344 347 348 350 353 353 352 351 348 347 346 343 343 343 343 344 343 343 344 344 343 344 345 344 343 345 347 349 350 350 349 348 347 348 350 350 350 350 351 351 348 345 346 347 345 344
353 354 355 355 356 356 356 356 355 354 354 354 354 353 353 353 355 355 354 352 350 348 348 350 350 345 343 342 338 335 334 332 332 333 334 336 340 346 346 345 346 346 347 352 353 351 349 347 346 346 346 343 342 343 343 343 343 344 345 345 344 344 343 343 344 345 347 349 350 350 350 350 349 348 350 351 350 352 354 351 348 347 347 345 343
351 351 353 355 356 356 356 356 354 353 355 355 354 354 353 353 356 357 356 355 353 350 349 350 351 349 349 350 346 340 336 334 334 334 335 335 338 344 348 347 347 348 346 348 351 350 348 346 345 345 345 344 341 341 341 341 342 343 343 344 345 345 344 344 344 343 345 347 349 349 349 349 348 346 349 350 350 353 355 353 351 350 350 350 346
348 348 350 354 357 357 357 357 355 354 354 355 355 354 353 353 354 354 355 356 355 354 351 349 351 350 350 352 354 350 343 339 338 338 338 337 336 341 346 346 347 349 349 347 347 347 346 346 344 343 342 343 341 341 340 339 339 340 341 341 342 344 345 346 344 343 343 344 347 348 347 347 347 345 345 347 348 352 354 353 352 352 352 352 351
346 345 346 351 355 356 357 357 356 355 354 355 354 353 353 352 351 351 352 353 355 356 354 352 352 352 350 351 355 356 352 346 342 341 342 343 340 339 343 345 347 348 349 349 347 346 345 344 343 342 341 341 343 344 345 343 339 338 339 340 339 340 343 346 345 343 343 342 343 346 347 348 348 346 345 346 348 351 353 353 352 351 351 352 352
343 344 344 346 350 353 354 354 355 355 355 354 354 353 353 352 351 351 350 351 353 355 356 356 355 353 352 353 355 356 356 354 350 347 347 349 347 345 344 344 346 348 349 349 348 347 347 346 343 342 341 341 344 347 348 347 344 341 340 340 339 339 341 345 347 345 343 341 341 342 344 346 346 344 345 349 350 350 351 351 351 350 350 350 350
341 341 341 343 345 348 351 352 352 353 353 354 353 352 352 351 350 351 350 351 353 354 355 356 355 352 351 353 354 354 354 356 355 352 351 351 350 349 348 346 346 347 347 348 348 347 348 348 346 345 343 343 345 346 346 347 347 346 344 342 341 341 343 346 347 346 343 340 338 338 338 340 340 339 342 347 351 351 349 348 350 350 350 350 349
339 339 340 341 342 345 348 349 350 351 352 352 353 352 352 353 353 351 350 351 353 354 354 355 354 354 352 352 352 352 352 355 356 354 352 351 349 348 348 348 348 347 346 347 347 347 347 346 346 346 346 344 344 344 343 343 345 345 345 344 342 341 343 346 346 345 343 341 339 338 339 338 338 337 338 341 345 347 346 346 348 349 348 349 349
337 337 338 339 340 342 345 347 348 350 351 352 353 352 353 354 354 354 353 353 354 354 355 355 354 354 354 353 352 351 351 352 354 355 354 351 348 346 346 347 348 348 347 346 346 346 346 345 345 345 345 345 345 344 342 341 341 340 340 341 340 338 340 341 343 343 342 341 340 339 340 339 338 337 337 338 339 340 341 341 344 345 346 348 347
335 335 335 336 337 339 341 343 345 347 349 350 351 352 353 353 354 354 354 353 354 354 353 353 352 352 352 352 351 351 351 351 351 352 353 352 349 347 345 346 347 348 349 346 344 344 346 346 345 344 343 344 343 343 340 339 338 337 336 336 336 336 336 336 337 338 339 339 338 338 337 337 337 337 338 338 337 337 337 337 338 340 343 345 344
334 334 334 334 335 337 338 339 341 342 344 346 348 349 351 352 353 353 354 353 353 353 352 352 351 351 351 351 350 351 351 352 351 350 350 351 350 347 345 345 345 346 349 348 345 343 344 345 345 344 343 343 342 341 339 336 335 335 334 334 334 334 334 333 333 333 333 335 335 336 336 336 338 340 340 340 339 340 340 340 340 339 339 340 341
333 333 333 333 332 334 336 336 337 339 341 342 343 345 347 349 351 352 353 354 354 353 353 353 352 352 352 352 351 351 351 351 351 351 350 350 349 347 346 345 343 344 346 348 347 344 342 343 343 343 343 343 342 342 341 339 337 334 332 333 334 334 334 333 332 331 330 330 331 333 335 339 342 344 344 344 343 343 343 342 342 342 341 340 339
331 332 332 332 330 331 333 333 333 336 339 340 340 342 344 346 348 350 351 352 354 353 353 354 354 353 353 352 351 351 351 351 352 352 351 350 349 348 347 345 344 343 343 346 347 346 343 343 343 343 343 343 343 343 343 343 342 339 336 334 334 334 335 335 334 333 331 330 330 331 332 338 343 345 344 345 345 344 343 342 342 343 342 341 339
329 329 330 331 330 329 331 332 332 332 335 338 338 339 341 342 344 345 348 349 351 352 352 353 355 354 353 354 353 352 352 352 352 353 352 351 350 349 348 346 345 344 343 343 346 346 345 343 343 343 343 344 344 344 344 343 343 343 341 339 338 338 337 336 335 334 333 332 331 331 332 335 339 342 342 343 343 342 341 341 341 341 341 340 339
328 328 328 328 328 328 328 330 331 330 331 334 336 338 340 340 340 339 342 346 348 349 350 351 352 353 353 353 353 352 351 351 352 352 351 352 351 350 348 346 345 344 344 344 345 346 346 345 344 343 343 343 345 345 346 345 344 344 343 343 343 342 341 339 337 335 334 333 332 332 332 332 334 337 339 341 342 342 341 341 341 341 340 340 340
326 326 327 326 326 326 325 326 329 328 326 328 333 337 338 338 335 330 331 338 343 345 347 348 349 350 351 352 352 352 351 351 351 351 352 352 351 350 349 347 345 345 345 345 344 345 347 346 345 344 343 343 344 346 347 348 347 346 345 345 345 344 343 342 341 339 337 335 333 333 333 333 333 333 335 337 339 341 342 343 344 343 343 343 342
324 324 325 325 325 325 325 324 326 326 325 325 328 332 336 337 334 328 324 326 330 334 338 342 345 347 348 349 350 351 351 351 351 351 351 352 351 351 350 349 347 347 348 347 346 345 346 347 347 346 346 344 344 344 344 346 348 348 347 346 346 346 345 344 343 342 341 339 337 335 334 335 337 337 337 336 336 337 338 340 340 341 341 342 342
322 322 323 324 323 324 323 323 324 325 325 324 323 325 329 333 334 331 323 319 321 324 326 331 336 340 343 346 348 349 350 351 351 351 350 351 351 351 351 350 349 348 348 348 348 348 348 347 347 347 347 347 346 345 344 343 345 347 349 349 348 347 345 344 343 343 342 342 341 340 338 338 340 342 342 342 341 341 340 339 338 337 336 336 335
321 321 322 322 322 322 322 322 323 323 324 325 324 321 319 322 327 327 321 316 318 320 320 323 325 328 332 338 343 346 348 349 350 351 351 351 351 351 351 351 351 350 350 350 351 351 350 349 348 348 348 348 348 348 348 347 346 347 348 350 352 352 349 346 345 344 343 342 342 342 342 341 341 342 342 343 343 344 344 344 343 343 341 339 337
320 320 321 321 321 321 321 321 321 322 322 324 324 322 317 315 319 321 318 315 315 316 317 319 321 322 323 326 332 337 342 346 348 350 351 351 351 351 352 352 352 352 352 352 352 353 352 351 351 350 350 350 350 350 351 352 351 351 352 353 355 355 351 348 346 345 344 344 344 344 344 344 344 344 344 342 342 341 341 341 342 343 343 341 337
319 320 320 320 320 320 320 320 320 321 322 322 322 322 318 315 316 318 318 316 314 314 314 315 318 321 321 321 324 327 330 335 341 345 349 350 350 351 351 352 353 353 353 353 353 354 354 352 352 352 351 351 351 351 352 353 353 353 353 353 355 355 351 347 346 346 346 346 346 346 346 346 347 347 348 347 347 345 344 343 341 341 340 338 336
319 319 319 319 319 320 319 319 319 319 321 321 320 319 317 315 317 319 319 317 315 313 314 314 315 317 316 317 320 323 323 326 329 334 340 345 348 350 351 351 353 353 353 354 353 353 353 352 352 352 353 352 352 351 351 351 351 352 353 352 353 354 353 350 349 347 347 347 348 349 350 349 349 350 350 350 350 350 350 349 348 347 346 345 344
319 319 319 318 319 319 318 318 318 319 320 319 317 316 314 315 321 322 319 315 314 314 317 319 317 316 314 314 315 318 320 324 327 327 330 335 341 345 348 350 351 351 352 352 353 353 353 353 353 353 353 353 354 353 352 350 349 350 351 352 353 354 353 353 351 349 347 347 347 348 350 351 351 352 352 351 351 351 351 352 352 352 351 352 352
319 320 320 319 318 317 317 318 318 319 319 316 315 315 313 317 323 323 317 313 315 316 320 324 323 320 315 313 314 314 315 323 330 328 324 327 332 336 340 343 345 347 349 350 351 352 352 352 353 354 354 354 354 353 352 350 349 349 349 351 353 353 354 354 353 351 350 348 348 348 350 352 353 353 354 353 353 353 354 354 354 354 354 354 355
319 320 319 318 316 316 317 319 319 319 318 316 316 316 315 317 320 319 314 315 318 317 318 322 322 318 313 312 314 313 313 320 327 324 319 323 327 329 334 338 339 341 346 348 348 349 351 351 352 352 353 354 354 353 352 350 349 349 350 352 352 353 354 354 352 350 349 349 350 351 352 353 354 355 355 355 355 356 356 356 356 357 357 357 356
319 318 317 316 315 316 317 319 318 317 316 316 316 316 317 317 317 316 315 317 317 315 315 316 315 313 311 312 313 313 312 314 317 317 319 326 330 331 334 337 336 336 340 345 346 346 347 348 349 349 350 352 352 353 353 353 352 352 351 351 352 353 353 352 350 347 346 348 351 354 354 354 354 355 355 355 356 356 356 357 358 358 358 358 357
317 316 316 316 315 316 317 317 317 316 315 316 316 316 316 318 317 316 315 314 312 311 311 311 310 310 311 311 311 312 312 313 316 321 328 334 337 337 335 337 338 336 335 338 343 346 347 347 347 347 348 349 351 352 352 352 353 353 352 352 352 352 350 348 347 348 349 352 354 355 355 354 354 355 355 355 355 355 356 357 358 358 358 358 357
316 315 315 315 315 315 316 316 317 316 316 316 316 314 314 317 318 316 314 310 308 308 309 308 309 310 310 310 311 312 314 318 324 331 336 337 337 336 335 337 340 341 337 334 338 343 345 346 347 347 347 346 347 349 351 352 352 352 352 352 352 351 350 349 351 352 353 354 355 355 355 355 354 354 355 355 355 355 355 355 356 356 357 357 356
315 315 314 314 314 315 315 315 316 316 316 316 316 315 315 317 318 318 316 314 311 311 309 308 308 309 310 313 317 319 322 325 328 332 335 335 333 333 335 338 340 342 341 339 337 336 336 336 338 338 337 334 332 335 340 345 349 351 352 353 353 352 352 352 353 354 353 354 354 355 355 355 354 354 354 354 354 354 353 354 355 357 357 357 357
314 314 314 314 313 313 314 315 316 316 317 317 317 318 318 317 317 318 318 317 316 315 313 309 308 308 311 317 324 326 327 327 328 330 333 333 332 330 331 335 337 337 335 332 327 325 326 326 327 327 326 324 323 324 326 329 334 339 343 347 351 352 353 353 353 353 352 353 354 354 355 355 355 355 354 354 353 353 353 354 355 356 357 358 357
313 313 313 312 312 313 314 315 315 316 316 316 316 316 317 317 317 317 317 317 317 317 315 313 312 310 311 316 322 325 324 323 324 326 327 327 324 322 323 327 327 325 323 323 323 324 325 324 323 322 323 323 323 323 323 323 324 326 329 332 337 342 348 353 354 353 353 353 353 354 354 354 354 354 354 354 354 354 355 355 355 356 356 356 355
312 312 312 312 312 314 314 314 314 314 314 314 315 315 315 315 316 316 316 316 316 317 317 317 317 315 313 314 316 317 319 321 323 324 325 324 322 321 324 326 326 326 328 330 331 331 327 323 321 319 320 321 322 322 323 324 324 325 325 325 327 329 335 341 346 349 351 353 355 355 355 355 355 355 354 352 350 350 351 350 349 348 349 352 354
Wind_Speed
23 27 24 25 27 25 25 24 24 25 26 24 23 23 23 23 21 20 23 22 23 24 23 22 21 21 22 22 20 19 18 17 18 17 13 15 17 15 14 12 12 11 10 11 11 11 13 13 13 13 12 11 11 12 13 14 14 14 14 14 13 12 11 10 9 10 11 10 5 5 7 8 9 9 8 7 6 6 6 7 4 2 3 3 5
23 27 26 25 27 26 25 24 24 27 28 26 24 24 23 24 23 21 21 22 23 23 22 23 22 20 21 23 21 19 18 17 18 17 13 14 16 16 16 15 15 14 14 14 13 12 13 14 15 15 14 12 12 12 12 13 13 13 13 14 14 12 9 8 9 10 11 10 7 7 6 5 5 5 6 7 6 7 8 9 6 1 3 4 5
24 27 27 27 28 27 25 25 25 27 28 28 26 24 24 25 24 23 21 21 22 22 22 23 22 19 19 21 20 19 18 16 15 15 13 14 16 16 16 16 16 15 15 15 15 15 15 14 14 15 14 13 12 13 12 12 13 13 13 14 13 12 10 9 9 10 10 9 8 7 6 5 4 5 9 11 8 6 7 10 8 2 5 5 4
24 28 27 27 29 28 27 26 26 27 28 28 28 25 24 25 24 24 22 21 22 22 23 23 21 18 17 17 17 18 19 16 15 14 12 14 16 15 16 16 16 16 15 15 15 15 15 14 14 14 14 12 12 13 12 12 13 13 14 14 13 12 11 9 7 7 10 10 9 7 6 5 4 5 8 10 10 8 7 10 9 3 3 3 3
22 28 28 27 30 30 29 27 26 27 29 29 29 27 26 25 24 25 24 22 22 22 23 23 21 19 17 17 17 17 19 18 16 15 13 15 16 15 16 15 15 16 15 15 15 15 15 14 14 13 13 12 12 13 12 13 13 12 14 15 14 13 12 9 7 9 12 10 8 7 6 4 2 3 5 7 7 8 11 13 10 2 1 2 5
20 25 27 28 30 32 31 28 27 28 28 28 27 27 28 26 24 25 24 22 23 23 23 23 23 22 21 21 20 19 20 19 17 17 15 15 16 15 15 15 15 16 15 15 14 14 14 14 14 13 13 13 13 14 13 12 11 11 14 16 15 14 13 11 10 13 13 9 6 6 4 4 3 1 4 7 7 6 9 13 11 5 5 3 4
21 19 25 30 30 32 32 30 29 29 28 27 27 27 28 27 25 24 24 23 23 24 23 25 25 24 24 23 21 20 20 19 17 16 14 14 15 15 15 15 15 15 15 14 14 13 14 14 14 14 13 14 14 13 12 11 11 12 14 16 16 15 15 12 12 14 14 10 8 5 5 6 5 3 5 7 8 9 8 10 10 5 3 2 4
23 19 22 30 32 32 32 31 30 29 28 27 28 28 28 28 26 25 24 23 24 25 24 26 27 26 25 24 20 19 18 17 17 14 12 14 14 13 15 15 15 15 14 14 13 13 13 14 14 14 13 13 13 14 13 12 12 13 13 14 15 16 15 13 13 15 15 13 10 6 7 9 5 3 6 6 6 6 6 9 13 7 1 2 4
28 24 21 24 30 33 32 32 31 29 28 28 27 28 28 27 26 27 26 24 25 26 25 26 26 25 24 23 21 18 16 15 15 14 13 15 13 12 14 15 15 14 13 12 13 13 13 13 13 13 13 13 14 15 14 13 11 11 12 12 14 16 16 13 14 16 16 14 12 8 9 10 6 4 7 5 3 2 5 7 12 10 4 2 2
28 27 23 20 24 31 32 31 30 29 28 27 27 29 29 26 25 27 27 26 25 26 26 25 25 24 23 22 21 19 16 16 15 14 14 14 13 12 13 15 15 13 12 12 12 14 13 13 13 13 13 13 14 13 11 11 10 9 11 12 14 17 16 14 14 15 14 14 13 10 10 10 7 6 7 4 1 3 3 6 8 10 9 4 3
28 27 28 23 20 25 31 31 30 29 29 28 28 29 29 27 25 26 28 27 25 26 26 25 25 25 22 21 21 20 18 18 18 16 15 14 15 14 13 14 15 13 13 12 12 13 13 13 13 13 13 13 12 11 10 10 10 9 11 12 13 15 16 15 14 13 13 14 13 11 10 9 7 6 5 4 4 4 3 4 7 9 10 7 4
28 29 30 27 22 22 28 31 29 30 31 29 29 31 30 28 25 25 27 28 26 26 26 25 25 25 23 22 21 21 19 20 21 19 17 17 16 16 14 14 14 13 13 13 12 13 12 13 13 13 13 13 12 10 10 10 11 11 11 11 12 14 15 15 13 13 13 12 11 11 10 8 7 5 4 4 5 6 4 5 6 6 7 8 6
28 29 31 30 27 23 24 29 28 30 32 31 30 31 31 28 26 25 26 28 27 26 26 25 24 25 25 23 22 21 19 19 22 21 20 19 17 16 15 14 14 14 14 13 13 13 13 13 13 12 12 13 12 11 11 10 11 12 12 11 12 13 14 14 14 14 13 10 11 12 10 7 6 5 4 2 4 6 6 5 4 3 6 8 8
27 29 30 29 29 25 23 28 28 28 31 32 30 31 31 29 27 26 25 27 27 26 26 25 24 24 25 24 23 22 20 18 21 21 19 19 18 16 16 14 14 14 14 12 11 13 13 12 12 12 12 12 11 11 11 11 11 11 11 12 12 12 13 13 13 14 13 11 12 13 10 7 7 7 5 3 3 3 6 7 5 4 5 7 9
27 28 28 28 28 26 26 31 32 28 28 32 32 31 32 30 27 26 25 27 27 26 25 25 25 25 25 25 23 22 21 19 19 20 18 18 18 16 16 15 13 13 13 10 10 12 12 11 11 12 11 11 10 11 11 11 11 11 11 12 12 12 12 12 13 13 12 12 13 12 10 8 9 10 8 7 7 5 5 8 8 7 5 5 9
28 28 28 28 29 29 29 31 34 30 25 28 33 33 33 31 27 24 24 26 28 26 24 25 25 25 25 25 24 22 21 20 19 19 17 17 17 16 15 15 13 13 13 11 10 11 11 10 11 11 11 11 10 11 10 10 11 11 11 12 11 12 12 12 13 12 12 13 13 13 12 10 10 12 10 9 11 8 6 8 10 10 9 6 8
25 28 29 29 28 30 31 31 34 33 26 24 28 30 32 31 28 24 23 24 27 27 24 23 23 24 24 25 24 23 22 22 20 18 17 16 16 15 14 15 14 13 14 13 12 13 12 12 12 11 12 11 11 11 10 11 11 10 10 11 11 11 11 12 13 13 12 13 14 13 13 12 11 12 12 11 12 12 9 10 11 11 11 10 8
19 23 27 27 25 25 28 29 30 31 28 24 23 26 30 31 28 24 22 23 26 27 25 24 23 23 23 23 24 24 22 22 21 19 17 16 16 16 15 15 14 13 13 14 15 16 15 13 13 12 12 12 11 11 11 12 11 10 10 11 11 11 10 11 12 12 12 12 13 13 14 15 14 13 12 12 13 13 12 12 12 11 12 12 10
14 18 21 22 23 24 26 27 27 29 30 29 25 24 26 29 28 26 24 24 25 26 25 24 24 23 23 23 23 23 22 22 21 20 19 17 17 16 15 16 15 14 14 13 15 17 17 15 13 13 13 13 12 12 12 11 11 10 10 11 11 11 11 11 11 12 12 12 12 12 13 15 16 13 13 14 14 12 11 11 12 11 11 13 13
6 12 18 20 19 21 25 27 28 29 30 31 30 26 24 26 28 29 28 25 26 28 26 25 24 23 23 22 22 22 22 22 21 21 20 19 18 17 16 16 17 16 15 13 13 15 16 15 14 14 14 13 13 13 12 12 11 11 10 11 11 11 10 10 11 12 12 12 12 11 12 13 14 14 13 14 14 11 9 9 10 11 11 12 14
11 6 9 16 15 16 20 22 24 25 25 28 31 28 25 26 29 31 31 27 25 26 26 25 24 23 23 23 23 23 23 22 21 21 21 20 19 18 17 17 16 16 15 16 16 16 16 16 16 16 15 14 14 14 14 12 12 12 11 11 11 10 10 10 11 12 12 13 13 12 12 12 12 12 12 14 14 11 9 8 8 10 11 11 12
16 15 9 9 12 13 15 16 18 21 21 22 25 22 21 25 27 27 27 26 25 25 25 25 24 23 23 22 22 22 23 23 22 21 21 20 20 20 19 18 17 16 16 18 19 19 18 17 17 17 17 16 15 14 15 14 13 13 13 13 13 12 11 11 11 12 12 12 14 13 13 13 12 12 12 13 14 11 7 6 6 7 7 8 9
18 16 12 10 11 10 11 13 16 19 18 18 20 19 18 21 23 23 23 22 24 26 26 25 24 24 23 22 22 21 21 23 23 23 22 21 21 20 20 19 19 18 18 18 20 20 20 18 17 17 18 18 17 15 15 15 15 15 15 14 15 13 11 11 11 12 12 12 14 13 12 12 12 12 12 12 13 11 8 7 8 8 8 8 8
18 19 16 12 11 9 9 11 13 17 18 16 17 18 18 19 21 22 23 22 24 26 26 25 25 25 24 23 23 22 21 22 23 24 23 23 22 21 21 21 20 20 21 20 20 20 20 20 19 18 18 19 18 17 17 17 16 17 16 16 16 14 12 12 11 12 13 13 13 14 14 13 13 13 13 11 12 12 12 12 11 11 10 10 9
19 20 20 18 14 12 10 10 10 13 15 15 15 15 15 16 17 19 22 24 26 26 25 26 25 24 24 24 24 24 23 22 22 23 23 22 22 22 22 22 22 23 23 22 22 22 21 21 21 21 20 19 19 19 19 19 18 18 17 16 16 16 15 14 14 14 15 14 14 15 15 15 15 14 13 12 12 13 14 15 14 14 13 12 12
19 20 21 20 18 16 13 11 10 10 10 11 13 14 13 12 14 18 21 23 25 25 23 24 25 25 26 26 26 26 24 24 24 24 24 24 23 23 22 23 23 24 24 23 23 23 23 23 22 22 22 21 21 22 22 22 21 20 19 18 17 17 18 17 16 16 17 16 16 16 16 16 16 16 15 14 14 15 15 15 16 16 15 14 13
20 22 22 20 18 17 15 14 13 12 11 10 10 11 12 11 11 14 17 18 20 21 21 21 22 23 25 26 28 27 25 26 27 26 27 27 26 26 24 23 23 23 25 25 24 24 24 24 24 23 24 23 23 24 24 23 23 21 21 21 20 19 19 20 20 19 18 18 17 17 17 16 17 17 16 16 16 17 16 15 15 16 15 15 15
20 22 24 22 20 17 15 15 15 14 12 11 12 12 12 11 9 9 12 15 18 19 19 20 19 20 22 24 27 27 25 27 29 28 28 29 28 28 27 25 24 24 25 24 24 26 25 24 25 25 24 24 25 26 26 25 25 24 22 22 22 21 20 21 22 22 21 21 20 19 19 19 19 18 17 17 16 17 17 16 15 15 15 15 16
20 21 22 22 22 20 18 17 15 13 12 11 12 13 12 12 11 10 10 13 16 17 18 20 20 20 21 22 23 25 27 29 30 31 30 29 30 29 28 27 25 24 27 25 23 25 27 26 25 25 25 25 26 27 27 27 27 26 25 24 23 23 22 22 22 23 23 23 22 21 21 20 20 19 18 18 17 15 15 15 15 15 15 16 16
19 20 20 20 20 21 21 19 17 15 14 11 10 11 11 11 12 12 10 10 11 12 12 14 16 17 18 19 20 23 27 31 33 34 32 29 29 28 27 27 25 24 26 28 24 23 26 27 27 26 25 25 26 26 26 26 27 27 27 26 25 25 25 24 24 23 23 23 22 22 21 21 21 20 18 17 16 15 15 16 16 16 17 17 18
19 19 19 19 18 18 19 18 18 18 18 15 11 8 7 7 8 9 10 9 8 8 7 6 8 11 14 16 18 20 24 28 31 33 32 30 28 26 24 26 27 25 25 27 28 26 25 27 29 29 27 27 26 25 24 24 25 26 27 27 27 27 27 27 27 26 25 24 23 22 21 20 21 21 21 19 18 18 18 19 19 19 19 19 20
18 18 18 18 18 18 19 19 18 18 17 17 14 10 8 6 5 5 7 7 7 7 8 7 5 6 9 12 15 16 18 22 26 29 31 29 27 25 23 23 26 27 26 26 29 30 28 26 28 31 30 29 28 26 25 24 24 25 26 27 28 29 29 30 30 29 28 27 26 25 24 23 22 22 22 23 23 23 22 22 22 22 23 23 24
16 17 17 17 17 18 18 19 19 17 17 17 16 15 14 12 8 5 3 4 4 5 8 8 7 6 7 7 10 13 14 17 21 25 27 26 25 25 25 23 23 26 27 27 28 31 31 29 29 30 31 30 29 28 26 25 24 23 24 25 27 28 29 29 30 31 31 30 29 28 27 26 25 25 24 23 25 25 25 25 25 25 26 26 26
16 16 17 17 16 16 16 17 17 16 16 16 17 19 17 14 12 10 6 3 2 2 4 5 5 5 6 7 8 9 11 13 16 19 21 22 21 22 24 24 23 24 27 29 28 28 30 32 32 32 31 29 27 27 27 28 27 25 23 23 25 28 28 28 28 29 30 31 30 30 29 29 28 28 27 26 26 25 25 26 27 28 28 27 27
15 15 16 16 15 13 14 15 15 14 15 16 16 18 17 14 14 14 13 9 5 4 2 1 2 3 5 7 7 8 10 12 13 16 19 20 19 19 20 21 23 25 27 30 31 29 28 29 31 32 32 30 28 25 25 26 27 28 27 26 26 27 29 29 29 28 29 29 30 30 31 31 30 30 29 29 28 28 28 27 27 28 29 28 28
14 13 14 14 14 12 12 14 14 13 15 16 15 16 17 15 15 16 17 16 12 9 7 4 1 1 3 5 7 8 11 12 12 15 18 20 20 20 19 20 23 25 27 30 33 32 31 30 29 30 31 32 32 30 29 27 26 26 28 29 30 30 30 30 30 30 29 29 29 30 30 31 31 31 30 29 29 29 30 30 30 31 31 31 32
14 12 12 13 14 12 11 12 13 12 12 14 13 13 15 15 13 14 16 17 16 14 13 10 6 4 2 2 4 7 9 11 12 14 17 19 20 20 21 22 24 26 28 30 32 34 34 34 33 33 32 32 33 34 35 35 33 30 28 29 31 33 34 34 33 32 31 31 30 30 30 31 32 32 31 30 29 29 30 32 33 34 34 35 36
13 11 10 11 12 12 10 9 12 13 11 11 10 10 13 14 12 12 14 15 15 15 14 13 12 10 8 6 3 3 6 9 11 14 15 16 17 18 20 22 24 27 28 30 31 32 33 35 35 36 37 36 36 36 36 37 38 37 34 31 29 30 33 35 35 34 33 33 33 33 32 33 33 34 34 33 32 31 31 32 33 34 35 37 38
10 10 10 7 8 12 11 7 9 11 10 8 7 7 10 13 12 11 12 13 14 14 13 13 12 12 12 11 9 7 5 6 9 12 15 16 17 17 18 19 22 25 26 28 29 30 31 32 33 35 36 37 37 37 37 36 36 36 36 34 30 27 29 32 34 35 36 35 35 35 35 35 35 35 35 36 36 35 36 37 37 36 38 41 42
9 8 8 6 6 9 10 7 6 7 6 5 6 7 9 11 10 10 11 12 13 14 12 11 11 10 12 12 11 9 9 8 8 9 13 15 17 17 18 18 19 21 23 25 27 29 30 30 31 32 33 33 34 35 34 34 35 34 35 34 32 29 29 31 33 35 36 37 38 38 37 38 38 37 37 37 37 38 39 40 40 41 43 45 45
9 5 5 5 5 6 7 7 6 5 4 3 6 8 9 10 9 9 9 10 12 13 11 10 9 8 11 12 11 10 11 11 10 8 9 13 16 18 19 19 19 19 20 21 22 25 28 29 30 30 30 29 29 30 31 32 32 32 32 31 30 30 32 33 35 36 37 37 38 40 41 41 40 40 40 39 38 37 37 38 39 40 41 41 41
8 5 3 3 3 3 3 5 5 6 5 6 7 9 9 9 8 8 9 10 12 11 11 11 9 7 10 12 10 10 11 11 12 12 10 9 12 15 17 20 20 20 20 20 20 20 22 24 27 27 27 25 24 25 29 31 30 29 29 29 28 29 31 32 34 36 38 39 39 39 40 41 40 41 41 40 38 36 34 34 34 35 35 33 33
6 5 2 1 1 2 3 4 4 5 7 8 9 9 8 7 5 7 9 10 10 9 8 9 9 9 12 13 11 11 12 12 12 13 13 11 9 10 12 15 18 20 20 21 21 20 20 21 22 23 23 23 23 25 29 30 30 29 28 28 28 30 31 31 33 34 36 38 38 36 35 36 37 37 38 37 35 32 30 30 31 30 30 28 28
4 4 4 4 5 3 2 2 4 5 6 7 7 7 7 6 6 8 8 8 8 8 7 8 10 12 14 15 13 12 12 11 10 13 15 13 9 8 8 9 12 15 17 17 17 18 19 19 18 18 18 20 22 26 28 29 29 30 30 29 30 30 31 32 34 36 35 34 33 33 32 32 33 33 33 31 29 27 27 27 28 28 28 28 27
3 6 8 9 7 4 2 3 5 5 5 5 5 5 6 7 8 8 7 7 8 10 10 11 12 14 15 15 14 14 13 11 11 12 12 10 8 8 8 9 11 11 11 12 11 11 12 12 12 12 13 15 19 21 23 24 26 28 30 31 29 28 29 31 32 33 32 30 30 30 30 30 31 30 29 29 28 28 28 29 29 30 30 31 31
4 6 8 8 7 4 4 5 5 5 5 4 4 5 5 6 8 8 8 10 11 11 11 12 13 14 14 15 15 15 15 13 11 8 7 7 8 9 10 11 12 11 8 8 8 7 7 7 8 8 10 12 14 16 17 18 20 22 23 24 24 25 25 26 27 27 27 26 28 29 30 31 31 31 31 32 31 31 31 31 31 31 32 32 32
5 5 7 8 8 6 6 6 6 6 6 5 5 5 5 5 8 9 10 11 11 11 12 12 12 13 13 14 14 14 13 11 8 6 5 6 7 9 11 11 11 10 9 9 9 9 8 8 8 8 8 9 10 12 14 15 17 17 17 19 22 23 22 22 23 23 22 23 26 30 32 33 34 35 36 36 35 34 35 35 35 35 35 36 35
4 5 6 8 8 8 7 7 7 8 8 8 8 8 6 6 7 9 10 11 11 11 12 11 11 11 11 11 11 11 10 9 6 4 4 6 6 7 8 8 8 9 11 12 14 14 14 14 14 13 12 11 11 12 14 15 15 15 16 17 19 19 19 19 20 21 21 23 25 29 32 34 35 37 38 38 38 38 38 39 40 39 39 40 40
4 4 6 7 8 9 8 8 8 8 7 6 7 7 7 8 8 9 10 11 11 12 13 12 11 10 9 8 7 8 8 9 9 9 10 11 10 9 10 12 12 12 14 17 18 18 17 17 18 18 18 18 18 19 20 20 18 17 16 18 19 19 20 20 20 20 22 23 24 26 28 30 31 33 34 36 37 38 39 40 40 38 37 37 37
5 6 9 10 9 8 7 7 7 8 7 6 6 6 7 8 9 9 10 12 12 13 15 15 14 12 10 8 9 10 11 11 13 14 16 17 17 16 16 16 16 16 16 15 15 16 16 17 17 17 18 20 21 22 23 23 23 21 19 20 22 23 24 24 22 21 23 24 24 25 25 26 26 27 29 30 31 33 34 34 34 32 31 31 32
9 11 11 9 7 6 7 7 9 9 9 9 8 9 9 9 9 9 11 13 13 13 14 16 16 16 14 13 13 13 13 13 13 15 17 19 19 18 16 14 13 13 12 11 12 14 17 19 19 18 16 17 18 20 21 22 23 23 22 22 23 24 25 26 26 25 25 26 25 25 25 25 25 25 25 26 27 28 30 30 30 30 29 29 29
Wind_Direction
174 167 168 173 173 169 168 168 169 169 169 173 175 176 175 177 184 183 177 178 174 171 172 166 157 157 157 154 156 162 173 176 175 185 182 168 172 173 173 170 163 162 164 163 157 155 157 159 163 161 162 163 157 155 153 156 160 156 148 140 137 142 149 151 152 164 172 173 169 140 145 149 150 151 142 133 123 131 177 213 210 56 49 37 41
178 167 168 174 172 170 170 167 170 171 172 175 175 176 177 179 187 189 186 183 177 174 171 162 157 163 162 157 160 168 177 178 176 183 179 169 175 175 172 173 171 171 172 174 176 176 170 166 166 164 165 165 161 157 153 156 161 159 151 144 142 142 146 153 150 157 169 167 151 135 142 154 170 197 195 176 146 128 160 187 194 114 67 49 40
179 169 170 174 170 171 171 168 173 176 176 177 178 178 179 183 190 195 192 185 180 176 169 162 160 166 164 159 164 170 175 178 177 181 181 174 176 176 175 176 175 174 175 175 178 179 174 171 169 167 167 167 163 158 156 158 158 158 156 151 151 149 155 160 152 157 159 154 158 162 163 169 183 211 212 203 186 157 161 178 185 141 59 59 62
181 174 172 173 171 173 173 171 176 179 179 180 182 183 183 187 193 197 195 186 181 178 171 164 160 164 164 163 172 173 173 180 184 187 186 178 179 179 176 177 175 173 173 173 176 176 172 171 171 169 167 168 166 162 163 163 156 157 158 154 151 150 155 153 149 175 173 166 175 174 168 178 180 182 187 193 199 204 200 189 183 147 70 96 117
184 179 176 174 174 176 174 175 180 183 182 183 186 185 185 191 194 197 196 188 183 179 173 166 159 162 167 173 180 177 176 183 186 188 189 182 183 180 175 176 175 173 173 172 174 175 171 170 169 168 166 166 168 164 163 163 160 160 160 156 150 149 155 153 151 175 177 175 176 168 172 185 176 184 176 169 183 208 211 195 183 191 305 174 158
187 182 181 178 177 177 176 178 184 186 185 187 190 187 187 194 196 196 195 190 183 179 175 168 164 168 174 181 184 181 183 186 185 187 188 184 183 179 176 177 175 174 174 172 172 173 171 168 166 164 166 167 167 164 158 160 165 167 165 162 160 160 164 166 165 172 174 167 158 162 181 174 149 155 165 152 143 151 179 184 186 230 280 238 185
194 195 187 182 179 178 178 181 186 189 189 190 190 188 189 195 198 195 192 190 183 179 177 172 172 176 178 184 190 188 185 185 189 190 185 182 180 179 178 177 177 177 175 173 171 172 173 170 167 164 167 169 166 161 156 159 169 174 173 169 169 169 168 167 165 168 171 159 143 152 171 163 139 103 134 145 132 125 146 180 191 214 263 202 155
205 217 197 185 183 181 181 183 188 191 191 191 190 190 191 196 198 195 191 189 184 181 181 180 180 180 180 185 190 189 186 182 184 184 180 182 181 179 180 178 180 180 178 175 171 175 177 172 170 167 167 169 165 162 163 170 177 182 182 175 174 175 170 166 160 161 167 162 155 162 159 150 129 124 154 138 120 126 142 187 200 204 220 170 148
206 211 198 187 185 185 184 184 188 192 192 192 192 191 195 199 198 195 193 190 187 185 186 187 185 183 181 183 186 185 183 177 173 173 176 182 186 188 184 179 181 182 180 178 175 177 179 176 173 171 171 173 169 168 172 179 183 189 191 185 181 178 174 171 165 163 167 166 167 174 162 148 128 149 167 132 99 140 106 146 190 197 183 119 136
204 202 198 191 184 186 187 185 188 193 194 194 194 194 198 203 199 196 195 192 190 189 190 190 187 186 181 179 184 182 179 175 170 174 180 182 192 199 188 181 183 183 181 184 182 179 180 180 177 175 177 177 174 174 177 181 186 190 192 193 188 181 181 181 174 170 172 172 174 174 166 157 139 147 167 155 178 205 113 106 153 177 182 158 92
205 204 202 195 185 186 187 186 187 193 196 193 194 197 201 205 204 198 195 195 193 190 194 192 185 187 183 178 182 180 179 179 173 181 190 187 193 197 190 185 187 187 188 192 187 181 182 181 179 181 183 183 180 175 176 179 184 188 188 190 188 182 184 187 181 176 173 176 181 175 171 173 164 161 178 195 207 197 167 120 131 162 188 185 140
204 204 201 196 191 187 187 187 188 193 196 193 193 199 203 205 206 202 196 196 195 192 196 195 186 187 187 184 183 181 184 184 177 184 194 193 193 192 188 189 191 192 194 196 192 185 185 184 183 185 185 185 186 183 185 183 179 184 187 188 186 182 186 189 184 177 172 174 178 170 168 171 171 173 180 212 227 217 189 129 125 155 179 185 192
200 200 201 204 197 189 188 189 190 194 195 192 193 199 204 205 207 206 200 196 197 195 196 197 191 188 190 191 188 185 188 189 184 187 194 196 195 191 190 193 195 195 195 196 197 190 188 190 188 189 189 188 190 193 194 188 181 183 185 186 187 185 187 187 184 181 177 169 163 161 162 161 167 171 168 214 244 229 210 164 134 158 166 181 203
198 196 199 205 201 197 198 192 191 196 194 192 194 199 204 206 207 209 205 200 200 199 196 197 196 192 193 196 195 190 190 193 192 192 196 197 197 193 193 196 196 196 194 193 201 198 193 198 194 191 196 193 194 200 196 191 189 187 185 185 185 186 187 184 184 185 182 172 164 164 170 175 181 178 172 205 221 229 225 206 200 206 183 190 201
198 199 199 201 200 203 207 198 194 193 190 191 194 199 205 207 208 209 207 204 204 204 200 198 199 197 197 199 200 196 192 195 199 200 199 197 198 196 193 197 198 194 194 195 203 201 195 203 202 193 199 199 197 201 198 196 197 190 189 187 181 184 187 182 182 184 182 177 174 177 185 188 188 186 185 202 214 234 239 220 223 228 216 197 192
196 198 199 202 202 204 205 200 197 193 188 191 194 199 205 207 210 211 209 207 207 208 205 202 202 202 201 202 204 202 196 197 203 207 204 197 200 201 194 197 197 192 198 198 200 204 205 214 210 197 197 200 201 202 198 200 203 196 193 190 185 184 186 185 184 185 184 184 186 190 193 193 192 194 193 198 212 223 226 223 232 237 231 216 196
198 202 202 203 204 205 206 202 200 196 191 193 196 201 206 208 210 210 209 208 208 209 209 207 206 205 206 207 208 209 204 202 206 210 209 202 202 206 201 197 196 196 202 197 196 211 222 221 214 204 199 197 202 203 198 201 206 204 199 194 192 189 187 190 190 190 189 191 195 195 195 195 195 199 199 201 211 219 222 226 236 243 236 226 211
194 202 202 203 203 204 205 203 202 201 200 203 204 202 203 207 210 210 210 210 209 210 210 208 207 207 210 210 211 214 212 210 211 212 212 209 207 209 207 201 198 202 206 201 198 210 224 224 214 212 207 200 205 206 202 204 203 206 207 199 197 196 193 191 192 197 196 195 200 198 196 199 199 203 209 208 212 217 224 230 238 246 238 227 220
188 192 193 198 204 206 204 199 199 201 204 206 205 199 196 200 205 207 208 208 207 209 210 211 211 210 212 212 212 216 217 216 216 214 212 213 211 211 211 207 205 207 208 208 208 211 222 226 218 217 214 206 210 212 208 209 205 204 209 206 199 200 202 193 191 202 204 202 203 197 197 203 203 207 213 214 215 220 226 231 235 237 231 226 224
170 188 188 186 191 202 204 203 203 202 202 204 205 203 197 195 199 204 207 206 203 205 207 210 212 214 216 216 213 214 219 220 220 220 218 215 214 215 213 210 212 214 207 209 222 225 225 228 223 220 219 212 213 216 215 214 211 208 210 211 206 202 203 197 197 208 211 210 209 201 201 206 207 208 210 214 221 227 229 227 229 231 229 230 229
80 94 171 180 182 195 201 204 206 204 203 206 209 209 205 200 200 203 206 207 204 202 204 206 208 213 217 221 219 215 217 220 221 223 224 221 216 215 217 214 216 220 211 207 221 231 229 230 227 223 224 223 220 220 221 219 216 215 213 214 215 210 207 203 205 212 211 210 212 212 212 212 212 214 214 217 222 227 232 233 231 235 237 241 240
70 63 79 149 173 194 202 200 199 196 195 201 204 200 194 193 195 196 197 201 204 203 203 203 205 208 211 219 227 225 220 220 221 221 224 226 220 215 218 218 215 222 223 214 219 229 230 229 227 225 226 230 229 226 227 224 219 220 221 220 221 219 216 216 216 217 213 211 214 217 217 214 216 220 219 223 223 216 223 244 250 251 253 256 250
65 61 66 109 145 173 193 197 197 195 194 200 205 203 196 194 201 204 201 201 205 206 204 203 204 207 207 210 222 231 229 225 223 221 221 226 226 219 218 218 214 219 228 227 225 230 233 232 228 226 227 231 234 233 233 232 226 223 224 227 229 227 223 226 227 224 222 219 216 217 218 218 220 222 220 224 223 211 212 241 258 265 267 268 267
70 70 73 96 128 150 171 185 192 196 200 205 211 215 216 213 214 215 211 208 211 212 210 207 206 209 209 208 212 223 230 228 227 224 220 223 229 226 221 219 215 216 223 230 233 234 236 236 232 229 227 228 233 236 238 239 236 231 227 228 234 236 230 229 235 237 234 229 222 222 226 227 228 227 223 225 225 214 209 221 239 250 255 263 270
75 78 78 85 104 125 150 173 184 193 202 209 213 214 215 216 216 211 206 209 215 216 215 213 212 211 210 209 209 215 221 222 224 224 221 223 229 231 229 224 218 217 221 228 233 236 237 238 237 235 231 228 229 235 239 241 242 241 233 228 232 237 236 235 238 241 241 237 232 231 233 233 235 234 228 228 235 231 218 215 225 235 241 251 260
72 77 78 77 84 97 114 137 152 165 183 199 208 209 204 203 208 207 205 210 216 220 220 219 218 215 214 213 213 214 214 213 215 217 216 218 223 226 231 234 229 221 220 225 233 236 236 239 241 240 237 233 231 233 238 241 243 243 241 237 235 235 237 240 243 243 241 240 239 239 237 237 239 240 237 235 239 243 237 227 226 231 234 242 249
70 73 77 77 77 83 92 102 111 125 143 156 168 183 189 187 195 206 212 216 218 222 223 221 219 219 218 218 220 223 221 216 216 216 213 213 215 215 219 230 238 234 224 222 229 236 239 240 243 245 242 239 237 236 238 241 244 244 242 241 241 239 237 239 244 247 248 247 247 247 246 244 244 245 244 241 240 244 244 237 234 237 238 239 244
68 69 73 74 74 80 87 90 90 99 118 133 137 147 165 172 173 191 211 221 223 223 224 225 225 225 223 222 224 230 233 226 221 220 218 217 217 216 213 215 226 237 237 229 226 232 241 243 243 247 248 245 242 241 241 241 245 247 245 243 244 245 244 242 243 246 249 252 254 255 254 253 252 252 252 250 248 247 247 243 240 242 243 244 246
67 65 66 69 71 75 79 80 80 86 97 111 121 126 137 148 150 156 181 207 219 224 228 232 236 236 233 230 229 235 239 236 229 225 224 224 223 222 219 214 214 225 236 239 233 229 235 243 245 247 249 250 248 247 246 244 243 245 246 246 246 247 249 248 247 247 248 250 253 255 256 255 257 257 257 255 254 254 255 255 253 250 249 251 254
71 67 64 64 68 72 73 71 73 75 74 81 101 112 117 127 135 142 154 176 198 210 216 224 233 240 242 241 239 240 240 239 235 230 228 227 227 228 230 227 220 217 223 234 238 233 231 237 245 248 249 251 252 253 253 251 248 246 246 246 246 248 250 252 253 254 253 253 253 255 256 257 258 262 263 260 258 259 262 266 267 265 261 260 261
73 72 67 64 64 69 71 68 71 76 73 65 66 82 99 109 119 131 138 145 162 176 171 178 215 232 237 237 234 236 238 239 237 234 231 227 227 235 244 240 231 223 219 224 232 236 235 235 240 246 249 251 253 256 259 260 258 254 251 249 247 246 247 250 254 256 258 258 258 257 257 256 255 258 262 265 266 268 269 270 270 269 267 267 267
72 73 71 66 61 63 65 60 61 73 81 72 61 63 74 78 89 120 136 144 157 164 152 138 153 189 206 217 222 228 235 237 236 234 232 230 230 240 249 245 236 232 228 224 225 230 234 235 237 243 247 250 252 256 259 263 265 263 259 256 253 251 248 247 249 253 256 259 259 259 258 255 253 254 255 258 261 265 267 268 268 267 268 272 274
76 74 73 71 64 61 64 60 53 59 75 76 65 64 67 61 57 69 103 146 161 166 165 158 150 155 167 185 208 221 227 231 232 231 231 235 239 241 241 240 235 232 231 230 227 227 229 231 233 239 246 250 252 255 257 260 264 267 266 263 260 259 257 253 251 251 253 256 257 258 258 255 253 253 253 253 255 258 261 263 265 267 270 273 276
84 78 75 73 68 62 62 65 59 53 64 72 68 70 71 58 49 56 66 91 132 150 175 180 176 183 185 183 197 216 225 229 231 231 231 234 239 239 236 234 230 227 229 232 230 228 229 229 230 234 241 247 252 254 255 257 261 265 268 268 265 263 263 263 260 258 256 256 257 258 259 258 255 253 252 251 252 256 260 263 264 266 269 270 271
89 86 79 71 67 58 52 62 65 52 55 68 72 74 73 58 48 58 65 68 82 98 108 154 186 206 211 207 205 213 222 228 228 228 229 230 232 235 234 232 230 231 233 234 232 231 230 229 229 230 233 238 243 248 253 256 259 262 264 267 266 263 262 263 265 265 263 261 261 260 261 262 263 261 257 255 252 252 256 260 261 263 265 266 267
88 90 88 77 69 58 46 55 63 50 45 58 69 75 74 62 48 52 59 61 62 69 73 80 126 193 226 226 222 220 223 228 230 229 231 231 230 233 235 236 236 236 235 233 232 233 233 232 232 231 232 234 236 241 247 251 256 260 262 263 262 261 260 261 263 266 266 266 266 265 264 264 265 267 267 265 263 259 258 260 261 262 264 265 266
83 82 90 86 76 65 51 55 62 50 36 42 54 69 77 72 57 47 51 55 55 56 57 56 58 57 16 278 249 239 235 234 231 231 235 237 237 239 240 239 238 236 235 233 233 233 235 236 236 236 237 237 238 239 243 248 252 256 258 260 260 259 258 259 262 264 265 266 267 267 267 265 265 266 268 270 270 268 266 266 266 267 268 268 269
86 76 79 83 81 70 55 58 66 58 43 33 35 52 64 66 61 47 44 51 52 49 48 45 44 45 37 22 354 291 261 249 241 236 236 237 238 241 244 243 239 236 235 235 235 236 236 236 237 239 240 241 242 243 243 246 250 254 256 259 263 265 263 261 263 265 264 265 266 266 266 265 264 265 266 267 268 268 268 268 268 270 271 272 273
86 79 70 73 88 75 58 61 72 60 48 31 15 24 39 45 48 39 32 39 41 39 40 37 34 38 38 31 21 3 330 289 266 253 248 245 243 243 245 246 243 240 237 237 238 240 239 239 240 241 241 242 243 245 246 247 249 252 255 255 259 268 271 266 263 264 264 264 265 265 264 265 266 266 266 265 265 265 266 267 268 270 271 272 275
73 81 80 78 94 78 57 58 62 42 35 22 352 353 14 29 36 29 21 24 26 25 28 30 32 37 34 31 26 15 1 342 313 284 268 262 258 255 253 252 249 245 242 240 241 242 242 243 244 245 246 246 246 247 249 250 251 252 255 257 259 265 269 268 264 261 262 263 265 265 265 265 266 268 269 270 269 267 266 266 266 267 268 272 276
58 66 92 87 80 77 67 62 40 2 344 339 330 337 359 16 21 18 11 9 11 14 15 15 24 37 32 27 28 23 13 4 354 332 294 271 265 263 260 258 257 253 249 246 246 246 246 246 246 248 250 249 250 252 252 252 252 253 254 260 264 264 265 268 267 263 261 260 261 263 265 267 268 269 271 272 271 270 268 267 266 266 268 273 276
55 46 100 103 71 74 79 53 18 337 309 306 315 329 351 9 12 0 352 355 1 8 11 4 1 11 16 13 18 24 20 12 6 1 340 297 274 266 263 262 263 263 260 256 253 251 250 247 246 248 251 252 254 256 254 252 253 254 255 260 264 263 263 269 271 269 266 262 259 259 261 264 268 271 273 273 273 272 270 269 268 269 271 274 275
45 25 72 123 2 31 54 28 347 306 298 308 319 330 345 1 358 335 336 348 352 354 2 358 341 335 347 351 356 9 13 9 5 2 357 343 310 281 272 270 268 266 266 265 261 257 256 255 252 251 254 257 259 258 256 254 254 256 260 264 263 261 262 268 273 276 275 270 264 258 257 259 265 270 273 275 275 274 273 271 271 272 273 274 273
24 349 317 304 312 335 29 345 296 277 288 306 315 322 330 331 322 322 331 338 329 321 326 327 318 320 330 333 335 345 355 1 355 346 346 350 343 314 299 296 287 274 265 264 263 260 257 260 262 261 262 264 262 260 259 259 258 259 262 264 263 263 265 267 269 270 272 270 262 254 252 254 260 266 271 274 274 272 272 272 272 273 273 273 271
1 324 312 313 318 321 306 290 284 277 278 287 293 299 310 313 313 318 321 308 301 306 310 308 308 314 319 320 324 329 334 344 346 335 333 348 357 343 330 331 329 310 276 258 259 260 256 259 264 264 264 264 262 262 263 264 262 261 260 261 263 264 265 265 264 265 267 266 258 252 250 252 255 260 265 268 267 267 267 267 267 267 268 268 266
345 334 327 327 332 331 315 312 316 315 308 301 288 284 290 299 301 302 299 296 299 305 306 305 308 311 313 315 319 321 326 337 345 342 342 353 353 341 331 332 341 340 312 274 268 272 268 268 270 268 266 264 261 261 263 263 262 261 259 259 260 260 261 263 265 268 270 265 257 252 251 251 251 252 256 259 261 262 262 261 261 262 263 265 265
328 333 325 323 333 342 337 333 337 338 335 328 315 305 302 302 303 304 301 299 303 305 306 308 311 313 316 318 318 320 329 341 355 6 359 340 326 325 327 328 333 334 320 299 290 289 289 292 292 286 283 281 274 267 262 258 258 260 259 257 257 259 263 267 268 268 268 264 258 254 251 249 248 248 251 255 257 259 261 262 263 263 262 263 263
320 319 315 318 325 329 329 336 345 349 349 347 342 337 331 319 314 316 314 311 311 310 307 307 309 313 318 324 327 329 329 329 330 325 298 283 286 304 312 308 307 309 304 298 295 293 292 293 293 293 293 293 292 287 280 271 265 262 259 256 256 257 259 262 264 265 263 261 259 256 254 252 251 250 252 254 257 260 263 265 267 268 267 265 265
302 302 307 312 317 325 335 346 348 345 347 351 346 338 334 328 323 322 322 320 317 312 308 307 306 307 310 314 315 310 297 286 280 270 253 245 247 263 273 268 264 270 279 286 291 292 293 292 291 291 292 290 289 291 291 287 283 278 270 265 265 263 261 261 263 265 263 261 259 258 258 259 258 257 256 257 258 261 263 266 269 271 271 272 273
297 304 310 316 326 339 346 339 324 314 312 313 311 309 315 321 322 321 319 317 314 314 317 317 313 306 296 282 273 272 272 274 276 274 269 264 265 271 273 270 271 277 284 290 294 295 296 297 295 294 293 291 289 290 291 290 289 287 282 276 273 271 269 267 267 266 264 262 259 259 261 263 264 264 264 264 265 267 268 270 273 275 277 278 278
310 317 325 332 333 325 314 307 308 310 310 308 306 308 313 318 321 322 320 316 315 316 319 322 321 316 305 290 275 268 267 271 278 289 294 293 289 286 282 279 287 297 297 290 287 289 294 299 301 300 296 293 292 292 291 290 289 288 286 283 281 278 276 274 271 268 265 263 261 262 263 265 266 268 270 274 277 279 279 281 284 285 286 285 282